Location: Boca de Tacagua
(10.5333°N, 66.9833°W)
Time: 05:30:49
(UTC+00:00)

Ariane H10-3 - Pass Details

Date: 02 July 2022
Orbit: 475 x 36438 km, 5.2° (Epoch: 12 August)

Event Time Altitude Azimuth Distance (km) Brightness Sun altitude
Rises 19:42:52 0° 89° (E) 39,917 10.3 42.8°
Reaches altitude 10° 21:06:14 10° 92° (E) 41,227 10.3 23.7°
Maximum altitude 00:11:12 26° 99° (E) 30,050 9.5 -17.9°
Drops below altitude 10° 01:37:04 10° 99° (E) 17,775 8.4 -35.6°
Sets 01:50:57 0° 98° (E) 15,610 8.3 -38.2°
